AXM722 WSSS-WMKK

Flight info

Callsign AXM722
Flight time N/A
Altitude 26000
Route MASBO3A MASBO A457 GUPTA GUPTA2J
Aircraft A320/M-SDE3FGHIRWY/LB1

Departure

Time 2026-05-06 23:17
Airport Singapore Changi Airport (WSSS)

Arrival

Time N/A
Airport Kuala Lumpur International Airport (WMKK)
Time Latitude Longitude Altitude Speed Heading
2026-05-06 22:52 1.33668 103.98405 28 ft 0 kts 293°
2026-05-06 22:52 1.33660 103.98402 29 ft 0 kts 293°
2026-05-06 22:52 1.33716 103.98426 24 ft 0 kts 293°
2026-05-06 22:58 1.33709 103.98439 25 ft 3 kts 298°
2026-05-06 22:59 1.33697 103.98458 25 ft 4 kts 324°
2026-05-06 22:59 1.33675 103.98464 25 ft 4 kts 17°
2026-05-06 22:59 1.33662 103.98459 24 ft 1 kts 23°
2026-05-06 22:59 1.33661 103.98459 24 ft 0 kts 23°
2026-05-06 23:01 1.33662 103.98459 24 ft 0 kts 23°
2026-05-06 23:01 1.33670 103.98471 25 ft 12 kts 63°
2026-05-06 23:01 1.33643 103.98515 24 ft 7 kts 176°
2026-05-06 23:01 1.33485 103.98456 24 ft 35 kts 204°
2026-05-06 23:02 1.33264 103.98363 24 ft 35 kts 202°
2026-05-06 23:02 1.33044 103.98271 24 ft 25 kts 199°
2026-05-06 23:02 1.32967 103.98239 24 ft 19 kts 206°
2026-05-06 23:02 1.32873 103.98284 24 ft 17 kts 106°
2026-05-06 23:03 1.32852 103.98335 25 ft 0 kts 117°
2026-05-06 23:16 1.32852 103.98336 24 ft 2 kts 117°
2026-05-06 23:16 1.32858 103.98428 26 ft 19 kts 70°
2026-05-06 23:16 1.32949 103.98521 25 ft 21 kts 28°
2026-05-06 23:16 1.33465 103.98740 24 ft 108 kts 22°
2026-05-06 23:17 1.34018 103.98972 25 ft 146 kts 22°
2026-05-06 23:17 1.35092 103.99414 221 ft 182 kts 22°
2026-05-06 23:17 1.36371 103.99871 745 ft 215 kts 19°
2026-05-06 23:17 1.37851 104.00363 1368 ft 233 kts 19°
2026-05-06 23:18 1.39435 104.01000 1873 ft 257 kts 24°
2026-05-06 23:18 1.41095 104.01764 2679 ft 267 kts 25°
2026-05-06 23:18 1.42790 104.02556 3599 ft 271 kts 25°
2026-05-06 23:18 1.44522 104.03347 4526 ft 276 kts 24°
2026-05-06 23:19 1.46286 104.04131 5446 ft 279 kts 23°
2026-05-06 23:19 1.48031 104.04655 6266 ft 284 kts
2026-05-06 23:19 1.50077 104.04626 7136 ft 288 kts 349°
2026-05-06 23:19 1.51974 104.03967 7992 ft 292 kts 332°
2026-05-06 23:20 1.53765 104.02992 8844 ft 295 kts 332°
2026-05-06 23:20 1.55576 104.02009 9702 ft 298 kts 332°
2026-05-06 23:20 1.57411 104.01015 10421 ft 304 kts 332°
2026-05-06 23:20 1.59319 103.99985 10690 ft 327 kts 333°
2026-05-06 23:21 1.61373 103.98879 11120 ft 341 kts 333°
2026-05-06 23:21 1.63477 103.97745 11791 ft 347 kts 333°
2026-05-06 23:21 1.65606 103.96596 12495 ft 351 kts 333°
2026-05-06 23:21 1.67773 103.95428 13205 ft 355 kts 333°
2026-05-06 23:22 1.69956 103.94253 13864 ft 359 kts 333°
2026-05-06 23:22 1.72115 103.92974 14471 ft 364 kts 325°
2026-05-06 23:22 1.74017 103.91265 14571 ft 376 kts 314°
2026-05-06 23:22 1.75684 103.88961 13939 ft 424 kts 299°
2026-05-06 23:23 1.76464 103.86879 14564 ft 418 kts 281°
2026-05-06 23:23 1.76590 103.86069 14870 ft 415 kts 276°
2026-05-06 23:23 1.76812 103.83255 16110 ft 396 kts 276°
2026-05-06 23:23 1.77106 103.80556 17125 ft 389 kts 278°
2026-05-06 23:24 1.77483 103.77899 17811 ft 389 kts 279°
2026-05-06 23:24 1.77916 103.75205 18370 ft 392 kts 280°
2026-05-06 23:24 1.78365 103.72507 18859 ft 395 kts 280°
2026-05-06 23:24 1.78813 103.69787 19373 ft 398 kts 280°
2026-05-06 23:25 1.79228 103.67094 20108 ft 373 kts 273°
2026-05-06 23:25 1.79331 103.66024 21324 ft 342 kts 275°